Regional Weather Roundup
Issued by NWS Wakefield, VA

Home | Current Version | Previous Version | Graphics & Text | Print | Product List | Glossary On
Versions: 1 2 3 4 5 6 7 8 9 10 11 12 13 14 15 16 17 18 19 20 21 22 23 24 25 26 27
000
ASUS41 KAKQ 172216
RWRAKQ

REGIONAL WEATHER ROUNDUP
NATIONAL WEATHER SERVICE WAKEFIELD VA
600 PM EDT THU AUG 17 2017

Note: "fair" indicates few or no clouds below 12,000 feet with no
significant weather and/or obstructions to visibility. * = Denotes
station may not report precipitation (e.g., rain,snow,etc.),
thunder or fog.

VAZ042-051-052>054-056-172300-
NORTHERN VIRGINIA

CITY           SKY/WX    TMP DP  RH WIND       PRES   REMARKS
WASH NATIONAL  PTSUNNY   87  75  67 S12       29.94R HX  96
DULLES         MOSUNNY   85  76  74 S10       29.93R
FORT BELVOIR   SUNNY     85  75  70 SE7       29.93R
QUANTICO       SUNNY     86  78  77 S17       29.93R HX  98
FREDERICKSBRG* SUNNY     87  73  63 S13       29.92S HX  95
STAFFORD*      SUNNY     85  72  64 S7        29.97S
WARRENTON      MOSUNNY   87  70  57 S7        29.93S
CULPEPER*      MOSUNNY   88  75  66 S8        29.93S HX  98
MANASSAS*      SUNNY     87  76  69 S13       29.92S HX  97
LEESBURG*      SUNNY     90  77  66 S7        29.94R HX 102
WINCHESTER     CLOUDY    82  73  74 SE9       29.92F
FRONT ROYAL*   CLEAR     88  75  66 S5        29.91S HX  97
LURAY*         MOCLDY    90  70  51 SW9       29.93S HX  95
$$

VAZ048-049-060>072-079>083-172300-
CENTRAL AND SOUTH CENTRAL VIRGINIA

CITY           SKY/WX    TMP DP  RH WIND       PRES   REMARKS
RICHMOND       MOSUNNY   85  73  67 S12       29.95S
CHESTERFIELD*  FAIR      86  75  69 S8        29.96S HX  95
PETERSBURG*    SUNNY     84  72  66 SE6       29.96F
HANOVER        SUNNY     86  70  58 S12       29.96R
TAPPAHANNOCK*  SUNNY     87  64  45 S5        29.96R
QUINTON*       FAIR     N/A N/A N/A S6        29.95S
CHARLOTTSVILLE SUNNY     89  75  63 S9        29.93R HX  99
GORDONSVILLE*  PTCLDY    86  76  71 SE3       29.93R HX  96
ORANGE*        MOSUNNY   86  73  66 CALM      29.93S
LOUISA*        SUNNY     86  73  66 S8        29.94S
BUMPASS*       FAIR      86  74  66 S7        29.94S
FARMVILLE*     MOSUNNY   84  72  66 S8G17     29.94R
CREWE*         FAIR      83  76  79 S3        29.96R
FORT PICKETT*  FAIR     N/A N/A N/A S9        29.97S
CHASE CITY*    FAIR      86  77  75 S8        29.96S HX  97
CLARKSVILLE*   FAIR      84  75  74 S8        29.96R
SOUTH HILL*    CLOUDY    83  78  83 S6        30.03R
LAWRENCEVILLE* FAIR      83  77  82 SE7       29.97S
EMPORIA*       CLOUDY    81  75  83 SE6       29.99R
$$

VAZ088>098-172300-
SOUTHEAST VIRGINIA

CITY           SKY/WX    TMP DP  RH WIND       PRES   REMARKS
NORFOLK        CLOUDY    85  71  63 S10       29.97S
VIRGINIA BEACH CLOUDY    81  70  69 SE9       29.97S
NORFOLK NAVAL  PTSUNNY   85  70  60 SE8       29.99R
WEST POINT*    MOSUNNY   86  71  60 SE9       29.97S
SALUDA*        FAIR      84  71  64 S9        29.96S
NEWPORT NEWS   CLOUDY    87  71  58 S9        29.96R
LANGLEY AFB    NOT AVBL
FORT EUSTIS    NOT AVBL
WILLIAMSBURG*  CLOUDY    90  73  58 CALM      29.97S HX  98
HR EXEC AP*    CLOUDY    84  66  54 S5        29.95S
FRANKLIN*      CLOUDY    81  73  75 S3        29.98S
US460-WAKEFLD  MOSUNNY   84  75  74 S6        29.97S
$$

VAZ020-022-025-037-045-172300-
WEST CENTRAL AND SOUTHWEST VIRGINIA

CITY           SKY/WX    TMP DP  RH WIND       PRES   REMARKS
STAUNTON*      PTSUNNY   87  72  60 S6        29.97R
WAYNESBORO*    CLOUDY    86  73  65 SE6       29.98R
HOT SPRINGS VA CLOUDY    79  63  57 CALM      30.13S
LYNCHBURG      SUNNY     88  72  58 S7        29.96R
DANVILLE       SUNNY     91  75  59 SW3       29.94S HX 101
SOUTH BOSTON*  FAIR      87  76  69 SE5       29.94S HX  97
MARTINSVILLE   SUNNY     87  74  65 CALM      30.00R HX  96
ROANOKE        MOSUNNY   89  74  60 E13       29.98S HX  98
BLACKSBURG     CLOUDY    85  73  68 CALM      30.06R
DUBLIN*        CLOUDY    87  70  57 W6        30.04R
MARION*        SUNNY     83  -2   4 W6        30.09R
HILLSVILLE*    TSTM      74  69  86 CALM      30.09F
RICHLANDS*     FAIR      81  66  59 SW6       30.08R THUNDER
WISE*          MOSUNNY   77  68  73 SW9       30.09S
ABINGDON*      CLOUDY    86  73  64 W8        30.04R
$$

MDZ021>025-VAZ099-100-172300-
SOUTHERN MARYLAND AND THE DELMARVA PENINSULA

CITY           SKY/WX    TMP DP  RH WIND       PRES   REMARKS
PATUXENT RIVER MOSUNNY   83  71  67 S8        29.95R
BAY BRIDGE APT LGT RAIN  75  73  94 SE6       29.96R
LEONARDTOWN    SUNNY     82  70  65 SE6       29.97R
DOVER          MOSUNNY   81  72  74 SE8       29.96S
GEORGETOWN     PTSUNNY   85  73  67 S8        29.97R
EASTON         PTSUNNY   84  68  58 SW7       29.99R
CAMBRIDGE      CLOUDY    82  73  74 VRB7G14   29.96R
SALISBURY      MOSUNNY   82  73  74 S9        29.97R
OCEAN CITY     SUNNY     80  71  74 VRB6      29.99R
WALLOPS ISLAND PTSUNNY   79  73  82 S14       29.99R
ACCOMACK*      CLOUDY    80  72  76 S9        29.98R
$$

NCZ012>017-030>032-172300-
NORTH CENTRAL AND EASTERN NORTH CAROLINA

CITY           SKY/WX    TMP DP  RH WIND       PRES   REMARKS
ROANOKE RAPIDS FAIR      79  77  94 CALM      29.97S
RALEIGH        CLOUDY    82  76  81 SE8       29.98F
ELIZABETH CITY CLOUDY    83  74  74 SE12      29.99R
AHOSKIE*       HVY RAIN  75  75  99 CALM      29.99R VSB 3/4
EDENTON*       CLOUDY    88  77  70 CALM      29.99S HX  99
CURRITUCK*     CLOUDY    82  72  70 E3        30.00R
KILL DEVIL HLS CLOUDY    81  72  73 CALM      29.99S
MANTEO         CLOUDY    82  73  74 S6        30.00S
CAPE HATTERAS  SUNNY     85  76  74 S7        30.00S
TARBORO*       NOT AVBL
GOLDSBORO      LGT RAIN  78  78 100 CALM      29.96F
WASHINGTON     SUNNY     87  76  70 S8        29.98S HX  97
GREENVILLE     MOSUNNY   84  75  74 SW17G23   30.00R
NEW BERN       MOSUNNY   85  76  74 S8        30.00R
WILMINGTON     CLOUDY    81  77  88 CALM      29.99S
$$

VAZ048-172300-
ELSEWHERE

CITY           SKY/WX    TMP DP  RH WIND       PRES   REMARKS
HARRISBURG PA  PTSUNNY   85  75  72 SE9       29.91F
BALTIMORE      PTSUNNY   79  75  87 SE6       29.94S
ANNAPOLIS      CLOUDY    78  78 100 SE9       29.95S
ANDREWS AFB    MOSUNNY   83  75  76 SE9       29.94R
PHILADELPHIA   MOSUNNY   86  66  51 S12       29.95S
HENDERSON NC   CLOUDY    78  71  79 SE8       29.98R
GREENSBORO     PTSUNNY   92  72  51 W10       29.96S HX  99
ROCKY MOUNT    CLOUDY    81  76  84 W10       29.99R
$$

VAZ100-172300-
MARINE

STATION/POSITION TIME  TEMP    WIND        PRES    WAVE   SWELL
                       AIR SEA DIR/SP/G            HT/PER HT/PER
                 (UTC) (F)     (DEG/KT/KT) (MB)    (FT/S) (FT/S)
BRANDYWINE LGT   2142   77     180/ 17/ 18 1014.8F
CAPE MAY NJ      2142   79 80  150/ 10/ 16 1014.3F
LEWES DE         2142   76 78  150/ 11/ 15 1014.2F
15NM E FENWICK I 2050   78 78  170/ 12/ 14 1015.5    2/ 7   2/ 7
OCEAN-CITY-INLET 2142   78 78  220/ 13/ 15 1015.6R
WACHAPREAGUE VA  2142   79 84  180/ 13/ 15 1015.2S
THOMAS POINT MD  2100   75 81  140/ 10/ 11   N/A
GOOSES REEF MD   2200   83 81  170/ 14/ 17 1014.7    2/ 3
COVE POINT MD    2142   81     190/ 18/ 21 1014.8R
SOLOMONS ISLAND  2142   84 82  170/ 11/ 13   N/A
BISHOPS HEAD MD  2142   83 85  160/ 15/ 18 1014.5R
PINEY POINT MD   2136          180/ 12/ 13   N/A
POTOMAC MD       2200   83 81  170/ 12/ 14 1013.6    1/ 3
CAMBRIDGE MD     2142   83 82              1015.3R
LEWISETTA VA     2142   84 85  190/ 10/ 14 1014.1R
RAPPAHANNOCK LGT 2136          130/ 15/ 17 1015.3S
STINGRAY PT      2200   83 81  180/ 16/ 17 1014.9    2/ 3
YORK RVR RNG VA  2142   81     160/ 19/ 22 1015.0R
YORKTOWN VA      2148          150/  6/ 10 1014.3
JAMESTOWN VA     2200      84  180/  8/ 12   N/A     0
DOMINION TERM VA 2142   85     180/ 13/ 15 1014.7R
KIPTOPEKE VA     2136      81  160/ 14/ 19   N/A
CHES BAY BRIDGE  2136   81 79  170/ 12/ 15 1015.0R
CAPE HENRY VA    2136   79     150/ 11/ 16   N/A
WILLOUBY STN VA  2142   85     160/ 14/ 16 1014.8R
S CRANEY ISL VA  2142   85     150/ 12/ 14 1014.6R
CAPE HENRY BUOY  2200      79                N/A     2/ 7
1ST LANDING BUOY 2200   80 80              1015.0    1/ 3
64NM E OF VA BCH 2050   78 80  150/  6/  8 1016.5    2/ 7   2/ 7
DUCK PIER NC     2136   80 76  130/ 13/ 14 1015.3F
44100 DUCK FRF   2105      82                N/A     2/ 7
44056 DUCK FRF   2200      80                N/A     2/ 6
OREGON INLET NC  2136   81 87  120/  6/  9 1015.8S
HATTERAS NC      2136   83 85  160/  6/  8 1015.9S
DIAMOND SHLS NC  2050   83 87  170/  6/  8 1015.7    2/ 8   2/ 8
CAPE LOOKOUT NC  2100   84     160/  7/  8 1015.4F
$$




USA.gov is the U.S. government's official web portal to all federal, state and local government web resources and services.